STARLINK-11515, 62556

Orbit data source: Space-Track

STARLINK-11515, 62556 is a payload satellite owned by SpaceX/Seattle (US) in LEO that was launched on Fri, 10 Jan 2025 UTC via an FALCON 9 launch vehicle from the Air Force Eastern Test Range (AFETR). Payload-class satellites include a variety of spacecraft equipped with specific instruments for various scientific and technological missions. These include communications satellites like Starlink; space stations such as the ISS; scientific satellites like the Hubble; Earth observation satellites from companies like Planet Labs, Umbra, and HawkEye 360; GPS; miniature CubeSats for education and research; and military/defense satellites.

Loading next visibility...
Identifier
62556, 2025-006C
Orbit
LEO
Country
Flag of USUS
Related business
Manufacturer
SpaceX/Seattle
Mission
Operational Commercial Communications
Bus & Motor
STARLINK V2MD, Unknown motor
Mass
960 kg wet, ~910 kg dry
Launch date (UTC)
2025-01-10 (1 year ago)
Launch vehicle
FALCON 9
Launch site
Air Force Eastern Test Range (AFETR)
Object type
Payload
Rocket body
Debris
Shape & HBR
Box + 2 Pan, 18.1 m
Radar Cross Section
36.964 m², Large (>1 m²)

Expand to show TLE details & history
Last TLE update: 10 hours ago

TLE from 10 hours ago
0 STARLINK-11515
1 62556U 25006C   26171.47012101  .00135045  00000-0  10389-2 0  9991
2 62556  42.9994 240.6795 0000324 269.4106  90.6724 15.70841119 82761
Epoch: 2026-06-20T11:16Z
TLE epoch observation values (Epoch: 2026-06-20T11:16:58.455Z)
Latitude
-0.00004°
Longitude
162.75161°
Altitude
356.266 km
Speed
7.697 km/s
True Right ascension
16h 02m 43s
True Declination
0° 00' 00"
Sunlit
Object was in full shadow at epoch
Visualization orbit readout
Latitude
Unknown
Longitude
Unknown
Altitude
Unknown
Speed
Unknown
Apparent Right ascension
Unknown
Apparent Declination
Unknown
Sunlit
N/A
Visualization observer readout
Local Sidereal Time
08:41:44
Azimuth
Unknown
Elevation
Unknown
Doppler factor
Unknown
Orbital elements
Apogee altitude
358.692 km
Perigee altitude
358.255 km
Semi-major axis
6,736.611 km
Eccentricity
0.00003
Inclination
42.9994°
RAAN
240.6795°
Arg. of periapsis
269.4106°
True anomaly
90.67611°
Mean anomaly
90.6724°
Eccentric anomaly
90.67426°
Mean motion
3.92537 °/min
Orbital period
91.71 mins
BSTAR
0.0010389
Loading maneuver chart data...
Computing Atmospheric mass density...
Loading historical data...
Loading historical data...
Loading historical data...
Loading historical data...
Loading historical data...
Loading historical data...
Loading historical data...

Documentation

Showing up to 5 results
|